Time,TemperatureF,DewpointF,PressureIn,WindDirection,WindDirectionDegrees,WindSpeedMPH,WindSpeedGustMPH,Humidity,HourlyPrecipIn,Conditions,Clouds,dailyrainin,SolarRadiationWatts/m^2,SoftwareType,DateUTC
2013-06-03 00:02:00,45.0,41.0,-100.00,WSW,258,1.0,2.0,86,0.00,,,0.00,0.000000,,2013-06-03 05:02:00,
2013-06-03 00:32:00,42.0,40.0,-100.00,SSW,213,0.0,2.0,91,0.00,,,0.00,0.000000,,2013-06-03 05:32:00,
2013-06-03 00:43:00,42.0,40.0,-100.00,SSW,213,0.0,2.0,91,0.00,,,0.00,0.000000,,2013-06-03 05:43:00,
2013-06-03 00:52:00,42.0,40.0,-100.00,SSW,213,0.0,2.0,91,0.00,,,0.00,0.000000,,2013-06-03 05:52:00,
2013-06-03 01:02:00,42.0,40.0,-100.00,SSW,213,0.0,2.0,91,0.00,,,0.00,0.000000,,2013-06-03 06:02:00,
2013-06-03 01:32:00,41.0,40.0,-100.00,SW,217,0.0,2.0,95,0.00,,,0.00,0.000000,,2013-06-03 06:32:00,
2013-06-03 01:42:00,41.0,40.0,-100.00,SW,217,0.0,2.0,95,0.00,,,0.00,0.000000,,2013-06-03 06:42:00,
2013-06-03 01:52:00,41.0,40.0,-100.00,SW,217,0.0,2.0,95,0.00,,,0.00,0.000000,,2013-06-03 06:52:00,
2013-06-03 02:02:00,41.0,40.0,-100.00,SW,217,0.0,2.0,95,0.00,,,0.00,0.000000,,2013-06-03 07:02:00,
2013-06-03 02:32:00,38.0,37.0,-100.00,South,184,0.0,2.0,95,0.00,,,0.00,0.000000,,2013-06-03 07:32:00,
2013-06-03 02:42:00,38.0,37.0,-100.00,South,184,0.0,2.0,95,0.00,,,0.00,0.000000,,2013-06-03 07:42:00,
2013-06-03 02:52:00,38.0,37.0,-100.00,South,184,0.0,2.0,95,0.00,,,0.00,0.000000,,2013-06-03 07:52:00,
2013-06-03 03:02:00,38.0,37.0,-100.00,South,184,0.0,2.0,95,0.00,,,0.00,0.000000,,2013-06-03 08:02:00,
2013-06-03 03:32:00,37.0,36.0,-100.00,SSW,199,1.0,2.0,96,0.00,,,0.00,0.000000,,2013-06-03 08:32:00,
2013-06-03 03:42:00,37.0,36.0,-100.00,SSW,199,1.0,2.0,96,0.00,,,0.00,0.000000,,2013-06-03 08:42:00,
2013-06-03 03:52:00,37.0,36.0,-100.00,SSW,199,1.0,2.0,96,0.00,,,0.00,0.000000,,2013-06-03 08:52:00,
2013-06-03 04:02:00,37.0,36.0,-100.00,SSW,199,1.0,2.0,96,0.00,,,0.00,0.000000,,2013-06-03 09:02:00,
2013-06-03 04:33:00,35.0,34.0,-100.00,SSW,197,0.0,2.0,96,0.00,,,0.00,0.000000,,2013-06-03 09:33:00,
2013-06-03 04:43:00,35.0,34.0,-100.00,SSW,197,0.0,2.0,96,0.00,,,0.00,0.000000,,2013-06-03 09:43:00,
2013-06-03 04:53:00,35.0,34.0,-100.00,SSW,197,0.0,2.0,96,0.00,,,0.00,0.000000,,2013-06-03 09:53:00,
2013-06-03 05:03:00,35.0,34.0,-100.00,SSW,197,0.0,2.0,96,0.00,,,0.00,0.000000,,2013-06-03 10:03:00,
2013-06-03 05:33:00,35.0,34.0,-100.00,SW,229,1.0,2.0,97,0.00,,,0.00,0.000000,,2013-06-03 10:33:00,
2013-06-03 05:42:00,35.0,34.0,-100.00,SW,229,1.0,2.0,97,0.00,,,0.00,0.000000,,2013-06-03 10:42:00,
2013-06-03 05:52:00,35.0,34.0,-100.00,SW,229,1.0,2.0,97,0.00,,,0.00,0.000000,,2013-06-03 10:52:00,
2013-06-03 06:02:00,35.0,34.0,-100.00,SW,229,1.0,2.0,97,0.00,,,0.00,0.000000,,2013-06-03 11:02:00,
2013-06-03 06:32:00,36.0,35.0,-100.00,North,5,1.0,2.0,96,0.00,,,0.00,14.000000,,2013-06-03 11:32:00,
2013-06-03 06:42:00,36.0,35.0,-100.00,North,5,1.0,2.0,96,0.00,,,0.00,14.000000,,2013-06-03 11:42:00,
2013-06-03 06:52:00,36.0,35.0,-100.00,North,5,1.0,2.0,96,0.00,,,0.00,14.000000,,2013-06-03 11:52:00,
2013-06-03 07:02:00,36.0,35.0,-100.00,North,5,1.0,2.0,96,0.00,,,0.00,14.000000,,2013-06-03 12:02:00,
2013-06-03 07:32:00,47.0,44.0,-100.00,ENE,57,3.0,5.0,88,0.00,,,0.00,129.000000,,2013-06-03 12:32:00,
2013-06-03 07:42:00,47.0,44.0,-100.00,ENE,57,3.0,5.0,88,0.00,,,0.00,129.000000,,2013-06-03 12:42:00,
2013-06-03 07:52:00,47.0,44.0,-100.00,ENE,57,3.0,5.0,88,0.00,,,0.00,129.000000,,2013-06-03 12:52:00,
2013-06-03 08:02:00,47.0,44.0,-100.00,ENE,57,3.0,5.0,88,0.00,,,0.00,129.000000,,2013-06-03 13:02:00,
2013-06-03 08:32:00,54.0,46.0,-100.00,NE,52,4.0,6.0,73,0.00,,,0.00,276.000000,,2013-06-03 13:32:00,
2013-06-03 08:43:00,54.0,46.0,-100.00,NE,52,4.0,6.0,73,0.00,,,0.00,276.000000,,2013-06-03 13:43:00,
2013-06-03 08:53:00,54.0,46.0,-100.00,NE,52,4.0,6.0,73,0.00,,,0.00,276.000000,,2013-06-03 13:53:00,
2013-06-03 09:02:00,54.0,46.0,-100.00,NE,52,4.0,6.0,73,0.00,,,0.00,276.000000,,2013-06-03 14:02:00,
2013-06-03 09:33:00,63.0,42.0,-100.00,ENE,68,5.0,9.0,47,0.00,,,0.00,421.000000,,2013-06-03 14:33:00,
2013-06-03 09:42:00,63.0,42.0,-100.00,ENE,68,5.0,9.0,47,0.00,,,0.00,421.000000,,2013-06-03 14:42:00,
2013-06-03 09:52:00,63.0,42.0,-100.00,ENE,68,5.0,9.0,47,0.00,,,0.00,421.000000,,2013-06-03 14:52:00,
2013-06-03 10:02:00,63.0,42.0,-100.00,ENE,68,5.0,9.0,47,0.00,,,0.00,421.000000,,2013-06-03 15:02:00,
2013-06-03 10:33:00,66.0,36.0,-100.00,NE,43,4.0,10.0,33,0.00,,,0.00,596.000000,,2013-06-03 15:33:00,
2013-06-03 10:43:00,66.0,36.0,-100.00,NE,43,4.0,10.0,33,0.00,,,0.00,596.000000,,2013-06-03 15:43:00,
2013-06-03 10:53:00,66.0,36.0,-100.00,NE,43,4.0,10.0,33,0.00,,,0.00,596.000000,,2013-06-03 15:53:00,
2013-06-03 11:03:00,66.0,36.0,-100.00,NE,43,4.0,10.0,33,0.00,,,0.00,596.000000,,2013-06-03 16:03:00,
2013-06-03 11:33:00,68.0,36.0,-100.00,NNE,26,5.0,11.0,31,0.00,,,0.00,754.000000,,2013-06-03 16:33:00,
2013-06-03 11:42:00,68.0,36.0,-100.00,NNE,26,5.0,11.0,31,0.00,,,0.00,754.000000,,2013-06-03 16:42:00,
2013-06-03 11:53:00,68.0,36.0,-100.00,NNE,26,5.0,11.0,31,0.00,,,0.00,754.000000,,2013-06-03 16:53:00,
2013-06-03 12:02:00,68.0,36.0,-100.00,NNE,26,5.0,11.0,31,0.00,,,0.00,754.000000,,2013-06-03 17:02:00,
2013-06-03 12:33:00,68.0,35.0,-100.00,West,268,6.0,10.0,30,0.00,,,0.00,836.000000,,2013-06-03 17:33:00,
2013-06-03 12:42:00,68.0,35.0,-100.00,West,268,6.0,10.0,30,0.00,,,0.00,836.000000,,2013-06-03 17:42:00,
2013-06-03 12:52:00,68.0,35.0,-100.00,West,268,6.0,10.0,30,0.00,,,0.00,836.000000,,2013-06-03 17:52:00,
2013-06-03 13:02:00,68.0,35.0,-100.00,West,268,6.0,10.0,30,0.00,,,0.00,836.000000,,2013-06-03 18:02:00,
2013-06-03 13:32:00,71.0,37.0,-100.00,WNW,303,6.0,13.0,29,0.00,,,0.00,865.000000,,2013-06-03 18:32:00,
2013-06-03 13:43:00,71.0,37.0,-100.00,WNW,303,6.0,13.0,29,0.00,,,0.00,865.000000,,2013-06-03 18:43:00,
2013-06-03 13:53:00,71.0,37.0,-100.00,WNW,303,6.0,13.0,29,0.00,,,0.00,865.000000,,2013-06-03 18:53:00,
2013-06-03 14:03:00,71.0,37.0,-100.00,WNW,303,6.0,13.0,29,0.00,,,0.00,865.000000,,2013-06-03 19:03:00,
2013-06-03 14:33:00,70.0,36.0,-100.00,North,359,5.0,11.0,29,0.00,,,0.00,713.000000,,2013-06-03 19:33:00,
2013-06-03 14:42:00,70.0,36.0,-100.00,North,359,5.0,11.0,29,0.00,,,0.00,713.000000,,2013-06-03 19:42:00,
2013-06-03 14:53:00,70.0,36.0,-100.00,North,359,5.0,11.0,29,0.00,,,0.00,713.000000,,2013-06-03 19:53:00,
2013-06-03 15:02:00,70.0,36.0,-100.00,North,359,5.0,11.0,29,0.00,,,0.00,713.000000,,2013-06-03 20:02:00,
2013-06-03 15:33:00,69.0,35.0,-100.00,NNW,332,5.0,12.0,29,0.00,,,0.00,596.000000,,2013-06-03 20:33:00,
2013-06-03 15:43:00,69.0,35.0,-100.00,NNW,332,5.0,12.0,29,0.00,,,0.00,596.000000,,2013-06-03 20:43:00,
2013-06-03 15:52:00,69.0,35.0,-100.00,NNW,332,5.0,12.0,29,0.00,,,0.00,596.000000,,2013-06-03 20:52:00,
2013-06-03 16:02:00,69.0,35.0,-100.00,NNW,332,5.0,12.0,29,0.00,,,0.00,596.000000,,2013-06-03 21:02:00,
2013-06-03 16:33:00,70.0,38.0,-100.00,North,8,5.0,9.0,31,0.00,,,0.00,335.000000,,2013-06-03 21:33:00,
2013-06-03 16:43:00,70.0,38.0,-100.00,North,8,5.0,9.0,31,0.00,,,0.00,335.000000,,2013-06-03 21:43:00,
2013-06-03 16:53:00,70.0,38.0,-100.00,North,8,5.0,9.0,31,0.00,,,0.00,335.000000,,2013-06-03 21:53:00,
2013-06-03 17:03:00,70.0,38.0,-100.00,North,8,5.0,9.0,31,0.00,,,0.00,335.000000,,2013-06-03 22:03:00,
2013-06-03 17:33:00,69.0,37.0,-100.00,North,10,6.0,10.0,31,0.00,,,0.00,225.000000,,2013-06-03 22:33:00,
2013-06-03 17:42:00,69.0,37.0,-100.00,North,10,6.0,10.0,31,0.00,,,0.00,225.000000,,2013-06-03 22:42:00,
2013-06-03 17:53:00,69.0,37.0,-100.00,North,10,6.0,10.0,31,0.00,,,0.00,225.000000,,2013-06-03 22:53:00,
2013-06-03 18:02:00,69.0,37.0,-100.00,North,10,6.0,10.0,31,0.00,,,0.00,225.000000,,2013-06-03 23:02:00,
2013-06-03 18:32:00,67.0,37.0,-100.00,ENE,73,6.0,9.0,33,0.00,,,0.00,111.000000,,2013-06-03 23:32:00,
2013-06-03 18:42:00,67.0,37.0,-100.00,ENE,73,6.0,9.0,33,0.00,,,0.00,111.000000,,2013-06-03 23:42:00,
2013-06-03 18:52:00,67.0,37.0,-100.00,ENE,73,6.0,9.0,33,0.00,,,0.00,111.000000,,2013-06-03 23:52:00,
2013-06-03 19:02:00,67.0,37.0,-100.00,ENE,73,6.0,9.0,33,0.00,,,0.00,111.000000,,2013-06-04 00:02:00,
2013-06-03 19:32:00,65.0,35.0,-100.00,ENE,65,6.0,10.0,33,0.00,,,0.00,41.000000,,2013-06-04 00:32:00,
2013-06-03 19:42:00,65.0,35.0,-100.00,ENE,65,6.0,10.0,33,0.00,,,0.00,41.000000,,2013-06-04 00:42:00,
2013-06-03 19:52:00,65.0,35.0,-100.00,ENE,65,6.0,10.0,33,0.00,,,0.00,41.000000,,2013-06-04 00:52:00,
2013-06-03 20:02:00,65.0,35.0,-100.00,ENE,65,6.0,10.0,33,0.00,,,0.00,41.000000,,2013-06-04 01:02:00,
2013-06-03 20:32:00,63.0,36.0,-100.00,NE,42,5.0,11.0,37,0.00,,,0.00,11.000000,,2013-06-04 01:32:00,
2013-06-03 20:42:00,63.0,36.0,-100.00,NE,42,5.0,11.0,37,0.00,,,0.00,11.000000,,2013-06-04 01:42:00,
2013-06-03 20:53:00,63.0,36.0,-100.00,NE,42,5.0,11.0,37,0.00,,,0.00,11.000000,,2013-06-04 01:53:00,
2013-06-03 21:02:00,63.0,36.0,-100.00,NE,42,5.0,11.0,37,0.00,,,0.00,11.000000,,2013-06-04 02:02:00,
2013-06-03 21:32:00,60.0,39.0,-100.00,NE,44,5.0,7.0,45,0.00,,,0.00,2.000000,,2013-06-04 02:32:00,
2013-06-03 21:42:00,60.0,39.0,-100.00,NE,44,5.0,7.0,45,0.00,,,0.00,2.000000,,2013-06-04 02:42:00,
2013-06-03 21:52:00,60.0,39.0,-100.00,NE,44,5.0,7.0,45,0.00,,,0.00,2.000000,,2013-06-04 02:52:00,
2013-06-03 22:02:00,60.0,39.0,-100.00,NE,44,5.0,7.0,45,0.00,,,0.00,2.000000,,2013-06-04 03:02:00,
2013-06-03 22:33:00,60.0,37.0,-100.00,ENE,67,7.0,13.0,43,0.00,,,0.00,0.000000,,2013-06-04 03:33:00,
2013-06-03 22:43:00,60.0,37.0,-100.00,ENE,67,7.0,13.0,43,0.00,,,0.00,0.000000,,2013-06-04 03:43:00,
2013-06-03 22:54:00,60.0,37.0,-100.00,ENE,67,7.0,13.0,43,0.00,,,0.00,0.000000,,2013-06-04 03:54:00,
2013-06-03 23:03:00,60.0,37.0,-100.00,ENE,67,7.0,13.0,43,0.00,,,0.00,0.000000,,2013-06-04 04:03:00,
2013-06-03 23:33:00,60.0,36.0,-100.00,East,98,6.0,16.0,40,0.00,,,0.00,0.000000,,2013-06-04 04:33:00,
2013-06-03 23:42:00,60.0,36.0,-100.00,East,98,6.0,16.0,40,0.00,,,0.00,0.000000,,2013-06-04 04:42:00,
2013-06-03 23:53:00,60.0,36.0,-100.00,East,98,6.0,16.0,40,0.00,,,0.00,0.000000,,2013-06-04 04:53:00,